Location: Newark
(9.1167°S, 159.8667°E)
Time: 09:41:27
(UTC+00:00)

LightSail 2 - Visible Passes

Search period start: 15 September 2019 00:00
Search period end: 25 September 2019 00:00
Orbit: 699 x 733 km, 24.0° (Epoch: 14 September)

Date Brightness Start Highest point End Pass type
(mag) Time Alt. Az. Time Alt. Az. Time Alt. Az.
15 Sep 6.3 07:38:15 10° W 07:43:10 39° SSW 07:48:02 10° SE visible
15 Sep 7.4 09:25:44 10° SW 09:28:14 17° SSW 09:28:14 17° SSW visible
16 Sep 7.0 08:27:54 10° WSW 08:31:52 21° SSW 08:34:43 14° SSE visible
16 Sep 7.6 17:24:35 11° N 17:24:35 11° N 17:24:54 10° N visible
17 Sep 6.9 07:30:05 10° WSW 07:34:28 26° SSW 07:38:50 10° SE visible
17 Sep 7.4 09:17:46 10° SW 09:20:10 15° SSW 09:20:10 15° SSW visible
18 Sep 7.3 08:19:57 10° SW 08:23:20 17° S 08:26:34 10° SSE visible
19 Sep 7.4 09:09:25 10° SSW 09:11:57 15° S 09:11:57 15° S visible
20 Sep 7.4 08:11:48 10° SW 08:14:50 15° S 08:17:50 10° SSE visible
21 Sep 7.2 09:00:33 10° SSW 09:03:36 16° S 09:03:36 16° S visible
22 Sep 7.3 08:03:12 10° SSW 08:06:17 15° S 08:09:21 10° SE visible
22 Sep 7.9 09:48:26 10° SW 09:48:55 12° SW 09:48:55 12° SW visible
23 Sep 6.9 08:51:18 10° SW 08:55:12 21° SSE 08:55:13 21° SSE visible
24 Sep 7.1 07:54:06 10° SSW 07:57:39 18° S 08:01:11 10° SE visible
24 Sep 7.5 09:39:02 10° SW 09:40:31 18° SW 09:40:31 18° SW visible
